Time,TemperatureF,DewpointF,PressureIn,WindDirection,WindDirectionDegrees,WindSpeedMPH,WindSpeedGustMPH,Humidity,HourlyPrecipIn,Conditions,Clouds,dailyrainin,SolarRadiationWatts/m^2,SoftwareType,DateUTC
2013-06-02 00:12:00,73.0,-25.0,-100.00,East,101,15.0,28.0,0,0.00,,,0.00,0.000000,,2013-06-02 10:12:00,
2013-06-02 00:22:00,73.0,-25.0,-100.00,East,101,15.0,28.0,0,0.00,,,0.00,0.000000,,2013-06-02 10:22:00,
2013-06-02 00:32:00,73.0,-25.0,-100.00,East,101,15.0,28.0,0,0.00,,,0.00,0.000000,,2013-06-02 10:32:00,
2013-06-02 00:41:00,73.0,-25.0,-100.00,East,101,15.0,28.0,0,0.00,,,0.00,0.000000,,2013-06-02 10:41:00,
2013-06-02 00:52:00,71.0,-26.0,-100.00,East,100,20.0,35.0,0,0.00,,,0.00,0.000000,,2013-06-02 10:52:00,
2013-06-02 01:12:00,71.0,-26.0,-100.00,East,100,20.0,35.0,0,0.00,,,0.00,0.000000,,2013-06-02 11:12:00,
2013-06-02 01:21:00,71.0,-26.0,-100.00,East,100,20.0,35.0,0,0.00,,,0.00,0.000000,,2013-06-02 11:21:00,
2013-06-02 01:32:00,71.0,-26.0,-100.00,East,100,20.0,35.0,0,0.00,,,0.00,0.000000,,2013-06-02 11:32:00,
2013-06-02 01:42:00,71.0,-26.0,-100.00,East,100,20.0,35.0,0,0.00,,,0.00,0.000000,,2013-06-02 11:42:00,
2013-06-02 01:52:00,71.0,-26.0,-100.00,WSW,246,18.0,40.0,0,0.00,,,0.00,0.000000,,2013-06-02 11:52:00,
2013-06-02 02:11:00,71.0,-26.0,-100.00,WSW,246,18.0,40.0,0,0.00,,,0.00,0.000000,,2013-06-02 12:11:00,
2013-06-02 02:21:00,71.0,-26.0,-100.00,WSW,246,18.0,40.0,0,0.00,,,0.00,0.000000,,2013-06-02 12:21:00,
2013-06-02 02:31:00,71.0,-26.0,-100.00,WSW,246,18.0,40.0,0,0.00,,,0.00,0.000000,,2013-06-02 12:31:00,
2013-06-02 02:42:00,71.0,-26.0,-100.00,WSW,246,18.0,40.0,0,0.00,,,0.00,0.000000,,2013-06-02 12:42:00,
2013-06-02 02:52:00,72.0,-26.0,-100.00,SE,141,8.0,35.0,0,0.00,,,0.00,0.000000,,2013-06-02 12:52:00,
2013-06-02 03:11:00,72.0,-26.0,-100.00,SE,141,8.0,35.0,0,0.00,,,0.00,0.000000,,2013-06-02 13:11:00,
2013-06-02 03:21:00,72.0,-26.0,-100.00,SE,141,8.0,35.0,0,0.00,,,0.00,0.000000,,2013-06-02 13:21:00,
2013-06-02 03:32:00,72.0,-26.0,-100.00,SE,141,8.0,35.0,0,0.00,,,0.00,0.000000,,2013-06-02 13:32:00,
2013-06-02 03:41:00,72.0,-26.0,-100.00,SE,141,8.0,35.0,0,0.00,,,0.00,0.000000,,2013-06-02 13:41:00,
2013-06-02 04:11:00,72.0,-26.0,-100.00,NNW,337,6.0,13.0,0,0.00,,,0.00,0.000000,,2013-06-02 14:11:00,
2013-06-02 04:21:00,72.0,-26.0,-100.00,NNW,337,6.0,13.0,0,0.00,,,0.00,0.000000,,2013-06-02 14:21:00,
2013-06-02 04:32:00,72.0,-26.0,-100.00,NNW,337,6.0,13.0,0,0.00,,,0.00,0.000000,,2013-06-02 14:32:00,
2013-06-02 04:41:00,72.0,-26.0,-100.00,NNW,337,6.0,13.0,0,0.00,,,0.00,0.000000,,2013-06-02 14:41:00,
2013-06-02 04:51:00,72.0,-26.0,-100.00,NNW,337,6.0,13.0,0,0.00,,,0.00,0.000000,,2013-06-02 14:51:00,
2013-06-02 04:52:00,70.0,-27.0,-100.00,WNW,289,6.0,25.0,0,0.00,,,0.00,0.000000,,2013-06-02 14:52:00,
2013-06-02 05:11:00,70.0,-27.0,-100.00,WNW,289,6.0,25.0,0,0.00,,,0.00,0.000000,,2013-06-02 15:11:00,
2013-06-02 05:21:00,70.0,-27.0,-100.00,WNW,289,6.0,25.0,0,0.00,,,0.00,0.000000,,2013-06-02 15:21:00,
2013-06-02 05:32:00,70.0,-27.0,-100.00,WNW,289,6.0,25.0,0,0.00,,,0.00,0.000000,,2013-06-02 15:32:00,
2013-06-02 05:42:00,70.0,-27.0,-100.00,WNW,289,6.0,25.0,0,0.00,,,0.00,0.000000,,2013-06-02 15:42:00,
2013-06-02 05:52:00,69.0,-28.0,-100.00,ENE,58,6.0,17.0,0,0.00,,,0.00,0.000000,,2013-06-02 15:52:00,
2013-06-02 06:13:00,69.0,-28.0,-100.00,ENE,58,6.0,17.0,0,0.00,,,0.00,0.000000,,2013-06-02 16:13:00,
2013-06-02 06:23:00,69.0,-28.0,-100.00,ENE,58,6.0,17.0,0,0.00,,,0.00,0.000000,,2013-06-02 16:23:00,
2013-06-02 06:33:00,69.0,-28.0,-100.00,ENE,58,6.0,17.0,0,0.00,,,0.00,0.000000,,2013-06-02 16:33:00,
2013-06-02 06:42:00,69.0,-28.0,-100.00,ENE,58,6.0,17.0,0,0.00,,,0.00,0.000000,,2013-06-02 16:42:00,
2013-06-02 07:12:00,69.0,-28.0,-100.00,SW,222,6.0,17.0,0,0.00,,,0.00,2.000000,,2013-06-02 17:12:00,
2013-06-02 07:22:00,69.0,-28.0,-100.00,SW,222,6.0,17.0,0,0.00,,,0.00,2.000000,,2013-06-02 17:22:00,
2013-06-02 07:32:00,69.0,-28.0,-100.00,SW,222,6.0,17.0,0,0.00,,,0.00,2.000000,,2013-06-02 17:32:00,
2013-06-02 07:42:00,69.0,-28.0,-100.00,SW,222,6.0,17.0,0,0.00,,,0.00,2.000000,,2013-06-02 17:42:00,
2013-06-02 07:51:00,69.0,-28.0,-100.00,SW,222,6.0,17.0,0,0.00,,,0.00,2.000000,,2013-06-02 17:51:00,
2013-06-02 07:52:00,73.0,-25.0,-100.00,North,350,6.0,13.0,0,0.00,,,0.00,92.000000,,2013-06-02 17:52:00,
2013-06-02 08:11:00,73.0,-25.0,-100.00,North,350,6.0,13.0,0,0.00,,,0.00,92.000000,,2013-06-02 18:11:00,
2013-06-02 08:21:00,73.0,-25.0,-100.00,North,350,6.0,13.0,0,0.00,,,0.00,92.000000,,2013-06-02 18:21:00,
2013-06-02 08:32:00,73.0,-25.0,-100.00,North,350,6.0,13.0,0,0.00,,,0.00,92.000000,,2013-06-02 18:32:00,
2013-06-02 08:42:00,73.0,-25.0,-100.00,North,350,6.0,13.0,0,0.00,,,0.00,92.000000,,2013-06-02 18:42:00,
2013-06-02 08:52:00,78.0,-22.0,-100.00,NW,309,11.0,17.0,0,0.00,,,0.00,351.000000,,2013-06-02 18:52:00,
2013-06-02 09:11:00,78.0,-22.0,-100.00,NW,309,11.0,17.0,0,0.00,,,0.00,351.000000,,2013-06-02 19:11:00,
2013-06-02 09:21:00,78.0,-22.0,-100.00,NW,309,11.0,17.0,0,0.00,,,0.00,351.000000,,2013-06-02 19:21:00,
2013-06-02 09:32:00,78.0,-22.0,-100.00,NW,309,11.0,17.0,0,0.00,,,0.00,351.000000,,2013-06-02 19:32:00,
2013-06-02 09:41:00,78.0,-22.0,-100.00,NW,309,11.0,17.0,0,0.00,,,0.00,351.000000,,2013-06-02 19:41:00,
2013-06-02 10:11:00,79.0,-21.0,-100.00,SW,229,11.0,17.0,0,0.00,,,-99.99,508.000000,,2013-06-02 20:11:00,
2013-06-02 10:21:00,79.0,-21.0,-100.00,SW,229,11.0,17.0,0,0.00,,,-99.99,508.000000,,2013-06-02 20:21:00,
2013-06-02 10:32:00,79.0,-21.0,-100.00,SW,229,11.0,17.0,0,0.00,,,-99.99,508.000000,,2013-06-02 20:32:00,
2013-06-02 10:42:00,79.0,-21.0,-100.00,SW,229,11.0,17.0,0,0.00,,,-99.99,508.000000,,2013-06-02 20:42:00,
2013-06-02 10:51:00,79.0,-21.0,-100.00,SW,229,11.0,17.0,0,0.00,,,-99.99,508.000000,,2013-06-02 20:51:00,
2013-06-02 10:52:00,79.0,-21.0,-100.00,NE,54,12.0,23.0,0,0.00,,,0.00,649.000000,,2013-06-02 20:52:00,
2013-06-02 11:11:00,79.0,-21.0,-100.00,NE,54,12.0,23.0,0,0.00,,,0.00,649.000000,,2013-06-02 21:11:00,
2013-06-02 11:21:00,79.0,-21.0,-100.00,NE,54,12.0,23.0,0,0.00,,,0.00,649.000000,,2013-06-02 21:21:00,
2013-06-02 11:33:00,79.0,-21.0,-100.00,NE,54,12.0,23.0,0,0.00,,,0.00,649.000000,,2013-06-02 21:33:00,
2013-06-02 11:42:00,79.0,-21.0,-100.00,NE,54,12.0,23.0,0,0.00,,,0.00,649.000000,,2013-06-02 21:42:00,
2013-06-02 11:52:00,80.0,-21.0,-100.00,WSW,245,18.0,32.0,0,0.00,,,0.00,599.000000,,2013-06-02 21:52:00,
2013-06-02 12:12:00,80.0,-21.0,-100.00,WSW,245,18.0,32.0,0,0.00,,,0.00,599.000000,,2013-06-02 22:12:00,
2013-06-02 12:23:00,80.0,-21.0,-100.00,WSW,245,18.0,32.0,0,0.00,,,0.00,599.000000,,2013-06-02 22:23:00,
2013-06-02 12:33:00,80.0,-21.0,-100.00,WSW,245,18.0,32.0,0,0.00,,,0.00,599.000000,,2013-06-02 22:33:00,
2013-06-02 12:42:00,80.0,-21.0,-100.00,WSW,245,18.0,32.0,0,0.00,,,0.00,599.000000,,2013-06-02 22:42:00,
2013-06-02 12:52:00,78.0,-22.0,-100.00,East,101,18.0,33.0,0,0.00,,,0.00,821.000000,,2013-06-02 22:52:00,
2013-06-02 13:12:00,78.0,-22.0,-100.00,East,101,18.0,33.0,0,0.00,,,0.00,821.000000,,2013-06-02 23:12:00,
2013-06-02 13:22:00,78.0,-22.0,-100.00,East,101,18.0,33.0,0,0.00,,,0.00,821.000000,,2013-06-02 23:22:00,
2013-06-02 13:32:00,78.0,-22.0,-100.00,East,101,18.0,33.0,0,0.00,,,0.00,821.000000,,2013-06-02 23:32:00,
2013-06-02 13:42:00,78.0,-22.0,-100.00,East,101,18.0,33.0,0,0.00,,,0.00,821.000000,,2013-06-02 23:42:00,
2013-06-02 14:11:00,82.0,-20.0,-100.00,SE,124,13.0,32.0,0,0.00,,,0.00,955.000000,,2013-06-03 00:11:00,
2013-06-02 14:21:00,82.0,-20.0,-100.00,SE,124,13.0,32.0,0,0.00,,,0.00,955.000000,,2013-06-03 00:21:00,
2013-06-02 14:32:00,82.0,-20.0,-100.00,SE,124,13.0,32.0,0,0.00,,,0.00,955.000000,,2013-06-03 00:32:00,
2013-06-02 14:42:00,82.0,-20.0,-100.00,SE,124,13.0,32.0,0,0.00,,,0.00,955.000000,,2013-06-03 00:42:00,
2013-06-02 14:51:00,82.0,-20.0,-100.00,SE,124,13.0,32.0,0,0.00,,,0.00,955.000000,,2013-06-03 00:51:00,
2013-06-02 14:52:00,80.0,-21.0,-100.00,West,279,8.0,23.0,0,0.00,,,0.00,474.000000,,2013-06-03 00:52:00,
2013-06-02 15:11:00,80.0,-21.0,-100.00,West,279,8.0,23.0,0,0.00,,,0.00,474.000000,,2013-06-03 01:11:00,
2013-06-02 15:21:00,80.0,-21.0,-100.00,West,279,8.0,23.0,0,0.00,,,0.00,474.000000,,2013-06-03 01:21:00,
2013-06-02 15:32:00,80.0,-21.0,-100.00,West,279,8.0,23.0,0,0.00,,,0.00,474.000000,,2013-06-03 01:32:00,
2013-06-02 15:42:00,80.0,-21.0,-100.00,West,279,8.0,23.0,0,0.00,,,0.00,474.000000,,2013-06-03 01:42:00,
2013-06-02 16:12:00,78.0,-22.0,-100.00,East,96,13.0,29.0,0,0.00,,,0.00,291.000000,,2013-06-03 02:12:00,
2013-06-02 16:22:00,78.0,-22.0,-100.00,East,96,13.0,29.0,0,0.00,,,0.00,291.000000,,2013-06-03 02:22:00,
2013-06-02 16:32:00,78.0,-22.0,-100.00,East,96,13.0,29.0,0,0.00,,,0.00,291.000000,,2013-06-03 02:32:00,
2013-06-02 16:42:00,78.0,-22.0,-100.00,East,96,13.0,29.0,0,0.00,,,0.00,291.000000,,2013-06-03 02:42:00,
2013-06-02 16:51:00,78.0,-22.0,-100.00,East,96,13.0,29.0,0,0.00,,,0.00,291.000000,,2013-06-03 02:51:00,
2013-06-02 16:52:00,80.0,-21.0,-100.00,NNW,332,10.0,26.0,0,0.00,,,-99.99,495.000000,,2013-06-03 02:52:00,
2013-06-02 17:12:00,80.0,-21.0,-100.00,NNW,332,10.0,26.0,0,0.00,,,-99.99,495.000000,,2013-06-03 03:12:00,
2013-06-02 17:22:00,80.0,-21.0,-100.00,NNW,332,10.0,26.0,0,0.00,,,-99.99,495.000000,,2013-06-03 03:22:00,
2013-06-02 17:33:00,80.0,-21.0,-100.00,NNW,332,10.0,26.0,0,0.00,,,-99.99,495.000000,,2013-06-03 03:33:00,
2013-06-02 17:43:00,80.0,-21.0,-100.00,NNW,332,10.0,26.0,0,0.00,,,-99.99,495.000000,,2013-06-03 03:43:00,
2013-06-02 17:52:00,78.0,-22.0,-100.00,NE,35,9.0,28.0,0,0.00,,,0.00,195.000000,,2013-06-03 03:52:00,
2013-06-02 18:12:00,78.0,-22.0,-100.00,NE,35,9.0,28.0,0,0.00,,,0.00,195.000000,,2013-06-03 04:12:00,
2013-06-02 18:23:00,78.0,-22.0,-100.00,NE,35,9.0,28.0,0,0.00,,,0.00,195.000000,,2013-06-03 04:23:00,
2013-06-02 18:33:00,78.0,-22.0,-100.00,NE,35,9.0,28.0,0,0.00,,,0.00,195.000000,,2013-06-03 04:33:00,
2013-06-02 18:42:00,78.0,-22.0,-100.00,NE,35,9.0,28.0,0,0.00,,,0.00,195.000000,,2013-06-03 04:42:00,
2013-06-02 18:52:00,75.0,-24.0,-100.00,East,94,11.0,25.0,0,0.00,,,0.00,53.000000,,2013-06-03 04:52:00,
2013-06-02 19:12:00,75.0,-24.0,-100.00,East,94,11.0,25.0,0,0.00,,,0.00,53.000000,,2013-06-03 05:12:00,
2013-06-02 19:22:00,75.0,-24.0,-100.00,East,94,11.0,25.0,0,0.00,,,0.00,53.000000,,2013-06-03 05:22:00,
2013-06-02 19:32:00,75.0,-24.0,-100.00,East,94,11.0,25.0,0,0.00,,,0.00,53.000000,,2013-06-03 05:32:00,
2013-06-02 19:42:00,75.0,-24.0,-100.00,East,94,11.0,25.0,0,0.00,,,0.00,53.000000,,2013-06-03 05:42:00,
2013-06-02 19:52:00,74.0,-25.0,-100.00,ESE,105,15.0,26.0,0,0.00,,,0.00,30.000000,,2013-06-03 05:52:00,
2013-06-02 20:12:00,74.0,-25.0,-100.00,ESE,105,15.0,26.0,0,0.00,,,0.00,30.000000,,2013-06-03 06:12:00,
2013-06-02 20:22:00,74.0,-25.0,-100.00,ESE,105,15.0,26.0,0,0.00,,,0.00,30.000000,,2013-06-03 06:22:00,
2013-06-02 20:32:00,74.0,-25.0,-100.00,ESE,105,15.0,26.0,0,0.00,,,0.00,30.000000,,2013-06-03 06:32:00,
2013-06-02 20:42:00,74.0,-25.0,-100.00,ESE,105,15.0,26.0,0,0.00,,,0.00,30.000000,,2013-06-03 06:42:00,
2013-06-02 20:52:00,71.0,-26.0,-100.00,NNE,20,17.0,36.0,0,0.00,,,0.00,0.000000,,2013-06-03 06:52:00,
2013-06-02 21:12:00,71.0,-26.0,-100.00,NNE,20,17.0,36.0,0,0.00,,,0.00,0.000000,,2013-06-03 07:12:00,
2013-06-02 21:22:00,71.0,-26.0,-100.00,NNE,20,17.0,36.0,0,0.00,,,0.00,0.000000,,2013-06-03 07:22:00,
2013-06-02 21:32:00,71.0,-26.0,-100.00,NNE,20,17.0,36.0,0,0.00,,,0.00,0.000000,,2013-06-03 07:32:00,
2013-06-02 21:42:00,71.0,-26.0,-100.00,NNE,20,17.0,36.0,0,0.00,,,0.00,0.000000,,2013-06-03 07:42:00,
2013-06-02 22:12:00,73.0,-25.0,-100.00,West,265,6.0,27.0,0,0.00,,,0.00,0.000000,,2013-06-03 08:12:00,
2013-06-02 22:22:00,73.0,-25.0,-100.00,West,265,6.0,27.0,0,0.00,,,0.00,0.000000,,2013-06-03 08:22:00,
2013-06-02 22:32:00,73.0,-25.0,-100.00,West,265,6.0,27.0,0,0.00,,,0.00,0.000000,,2013-06-03 08:32:00,
2013-06-02 22:42:00,73.0,-25.0,-100.00,West,265,6.0,27.0,0,0.00,,,0.00,0.000000,,2013-06-03 08:42:00,
2013-06-02 22:51:00,73.0,-25.0,-100.00,West,265,6.0,27.0,0,0.00,,,0.00,0.000000,,2013-06-03 08:51:00,
2013-06-02 22:52:00,73.0,-25.0,-100.00,North,357,10.0,29.0,0,0.00,,,0.00,0.000000,,2013-06-03 08:52:00,
2013-06-02 23:12:00,73.0,-25.0,-100.00,North,357,10.0,29.0,0,0.00,,,0.00,0.000000,,2013-06-03 09:12:00,
2013-06-02 23:22:00,73.0,-25.0,-100.00,North,357,10.0,29.0,0,0.00,,,0.00,0.000000,,2013-06-03 09:22:00,
2013-06-02 23:33:00,73.0,-25.0,-100.00,North,357,10.0,29.0,0,0.00,,,0.00,0.000000,,2013-06-03 09:33:00,
2013-06-02 23:42:00,73.0,-25.0,-100.00,North,357,10.0,29.0,0,0.00,,,0.00,0.000000,,2013-06-03 09:42:00,
2013-06-02 23:52:00,73.0,-25.0,-100.00,East,98,18.0,33.0,0,0.00,,,0.00,0.000000,,2013-06-03 09:52:00,